Theta_e
311 316 317 318 318 317 315 314 314 315 315 315 315 315 316 316 316 314 316 317 312 314 319 317 316 317 318 316 312 309 312 311 309 308 307 305 305 304 304 304 304 304 303 304 305 306 306 307 307 307 308 309 309 310 310 310 310 310 310 311 311 312 312 313 314 315 317 319 321 321 322 322 322 322 323 323 323 323 323 324 324 324 324 324 324 324
312 317 318 318 317 316 315 313 312 312 312 313 314 315 316 316 316 315 317 317 312 313 320 319 315 318 318 314 309 308 311 309 306 307 305 304 304 303 303 303 303 303 303 304 305 306 307 307 307 307 308 308 309 308 308 308 308 309 309 309 309 309 310 310 311 313 314 317 319 320 320 320 321 321 321 321 321 321 321 322 322 322 322 322 322 322
314 316 317 315 313 312 313 312 312 314 313 314 315 315 317 318 318 318 318 317 315 314 321 321 315 317 317 311 308 307 307 306 305 305 304 304 303 303 303 302 303 303 304 305 306 307 307 307 307 308 308 308 308 308 308 308 308 308 308 308 308 308 308 308 308 309 311 313 315 317 318 318 319 319 319 319 319 319 319 319 320 320 320 320 319 320
317 318 315 311 310 312 314 314 313 314 314 316 317 316 318 317 317 321 320 319 317 314 317 318 315 317 314 309 308 306 305 305 304 304 304 303 303 302 302 302 302 303 303 304 305 306 307 308 308 308 308 308 308 308 308 308 308 308 308 307 307 307 307 307 307 308 308 309 311 312 313 314 314 315 316 316 316 316 316 315 316 316 317 317 317 317
319 318 313 311 313 314 315 315 314 314 316 320 320 318 318 318 318 320 319 318 319 316 316 314 318 325 319 313 311 307 305 305 304 303 303 302 302 302 301 301 302 302 302 303 305 306 307 308 308 308 308 308 308 308 308 308 308 308 308 307 307 307 307 307 307 307 307 307 308 309 310 310 310 310 310 310 309 309 309 309 310 310 311 311 312 313
316 314 312 315 316 315 316 318 318 317 318 321 323 320 317 319 319 319 318 318 321 321 317 313 320 331 327 317 313 309 307 305 304 303 302 302 301 301 301 300 300 301 301 302 303 304 306 307 307 308 308 308 308 308 308 307 308 308 308 307 307 308 307 307 307 307 307 307 307 307 307 307 308 307 307 307 306 306 306 306 306 306 306 306 307 307
316 313 314 318 319 318 318 319 321 319 318 319 321 320 319 320 319 319 317 317 322 323 316 313 317 325 326 319 314 311 309 306 303 302 301 301 301 300 300 299 299 300 300 301 302 303 305 306 307 307 307 307 307 307 307 307 307 307 307 307 307 307 307 307 307 307 307 307 307 306 306 306 306 306 306 306 305 305 305 305 304 304 304 304 304 304
316 315 315 317 318 319 318 319 319 319 320 322 320 320 322 320 318 319 316 316 320 318 318 318 315 316 319 317 313 311 311 307 304 303 301 300 299 299 299 299 299 299 300 301 302 303 305 305 306 306 306 306 306 306 306 306 306 306 306 306 306 307 307 307 307 307 307 307 306 306 306 305 305 305 305 305 305 305 304 304 304 303 303 303 303 303
314 315 318 318 317 318 320 321 319 318 320 323 319 318 319 317 318 319 316 317 317 313 320 323 315 314 319 320 315 311 312 311 306 303 301 299 299 298 298 298 298 298 299 300 302 303 303 304 305 305 305 305 305 305 305 305 305 305 305 305 305 306 306 306 306 306 306 306 306 306 305 305 305 304 304 304 304 304 304 303 303 303 303 303 303 302
313 313 315 319 319 319 322 321 318 320 319 316 315 318 320 320 320 318 316 319 317 314 320 322 316 316 321 325 321 313 313 314 307 303 301 299 298 298 297 297 297 298 299 300 301 302 302 303 304 304 304 304 304 304 304 304 304 304 304 305 305 305 305 305 305 305 305 305 305 305 305 304 304 303 303 303 303 303 303 303 303 302 302 302 302 302
312 310 310 315 317 316 319 315 311 315 313 310 315 321 324 325 322 320 320 319 317 318 322 320 317 317 320 327 324 314 313 312 306 303 300 298 297 297 297 297 297 298 299 300 301 301 302 303 303 303 304 304 304 304 304 304 304 304 304 304 304 304 304 304 304 304 304 304 304 304 304 303 303 303 302 302 302 302 302 302 302 302 302 302 301 301
313 312 311 312 312 312 315 314 310 310 309 312 320 322 322 325 324 323 322 319 318 324 326 320 316 314 318 325 320 310 307 307 306 303 300 298 297 296 297 297 297 298 299 300 301 301 302 303 303 303 303 303 303 303 303 303 303 303 303 303 303 303 303 303 303 303 303 303 303 302 302 302 302 301 301 301 301 301 301 301 301 300 301 301 301 300
317 318 313 311 311 311 316 318 314 312 313 316 320 320 321 322 321 323 322 319 321 323 320 317 315 315 319 319 310 304 303 304 304 302 299 298 296 296 297 297 298 298 299 300 302 302 302 303 303 303 303 303 302 303 302 302 302 302 302 302 302 302 301 301 301 301 301 301 301 300 300 300 300 300 299 299 299 299 299 299 299 299 299 299 299 300
321 321 315 312 313 312 316 318 317 319 316 315 316 320 322 321 321 326 323 318 320 321 316 315 316 318 322 315 304 301 301 300 301 300 298 297 296 296 297 297 298 299 301 301 302 303 303 302 302 302 302 302 302 301 301 301 301 301 301 300 301 300 300 300 300 299 299 299 298 298 298 297 297 297 297 297 297 297 297 297 297 297 297 297 297 297
322 324 320 317 315 314 314 314 320 325 317 313 317 318 320 323 326 327 325 321 322 323 318 314 316 323 325 313 301 299 299 297 299 298 297 297 296 297 297 298 299 300 301 302 302 302 302 302 301 301 301 301 301 300 300 300 300 299 299 299 299 298 298 298 297 297 297 296 296 295 295 295 294 294 294 294 294 294 294 294 294 294 293 293 293 293
318 324 323 316 312 313 313 311 315 322 317 312 314 316 317 322 324 321 321 322 320 321 319 317 319 319 314 305 299 299 298 297 297 297 296 296 296 296 297 298 299 300 301 301 301 301 301 300 300 300 300 300 299 299 299 299 298 298 298 297 297 296 296 296 295 295 294 294 293 293 293 293 292 292 292 292 292 291 291 291 291 291 290 290 290 290
316 322 322 313 310 311 312 312 311 315 319 314 312 318 319 317 319 319 319 317 315 317 318 318 319 313 308 306 301 300 300 298 297 296 296 296 296 296 297 298 299 300 301 300 300 300 300 300 299 299 299 299 298 298 298 297 296 295 295 294 294 294 293 293 293 292 292 291 291 291 291 291 291 291 291 291 290 290 290 290 290 290 289 289 289 289
318 322 321 315 314 312 308 310 310 309 315 317 316 319 316 314 318 321 320 318 317 318 317 318 319 315 314 313 303 300 301 300 298 297 296 296 296 297 297 299 299 300 300 300 300 300 299 299 299 298 298 298 297 297 296 295 294 293 292 292 291 291 291 291 291 291 290 290 290 290 290 290 290 290 290 290 290 289 289 289 289 289 289 289 289 289
318 321 321 315 315 315 310 312 314 310 310 315 316 315 314 317 321 319 318 319 319 317 318 321 319 315 316 315 308 305 304 300 299 298 297 296 296 297 298 298 299 300 300 300 299 299 298 298 298 297 297 296 295 295 294 293 293 293 293 292 291 291 290 290 290 290 290 290 290 290 290 290 290 289 289 289 289 289 289 289 289 289 289 289 289 289
318 319 321 315 313 315 314 315 319 317 311 310 312 312 314 318 320 318 316 318 319 316 317 319 317 317 319 317 315 311 304 299 300 300 298 297 297 298 299 300 300 300 300 299 299 298 298 298 297 297 297 297 296 296 295 293 293 292 291 291 290 290 290 290 290 290 290 290 290 290 290 290 290 290 290 290 290 290 290 290 289 289 289 289 289 289
317 316 319 317 314 315 317 318 321 321 315 313 315 315 316 315 316 317 315 316 319 318 318 316 314 319 319 311 312 311 303 299 300 300 298 297 298 300 301 301 301 300 300 299 298 298 298 298 298 298 297 296 294 292 291 290 290 290 290 290 290 290 290 290 290 290 290 290 290 290 290 290 290 290 290 290 289 289 289 289 289 289 289 289 289 289
315 317 319 318 316 318 321 318 316 319 320 321 320 318 318 317 317 316 315 316 317 317 318 316 314 318 315 307 306 307 301 299 299 298 298 298 300 302 301 302 301 300 300 299 298 298 298 298 298 296 294 291 290 289 289 289 290 290 290 290 290 290 290 290 290 290 290 290 290 290 290 290 289 289 289 289 289 289 289 289 289 289 289 289 289 289
311 317 320 318 318 317 316 311 308 312 318 320 317 316 318 319 319 318 315 316 316 315 316 316 316 316 310 304 304 302 299 299 298 298 299 300 302 302 302 302 300 299 299 299 298 298 297 296 294 292 290 289 289 289 290 290 290 290 290 290 290 290 290 290 290 290 290 290 290 290 290 289 289 289 289 289 289 288 288 288 288 288 288 288 288 288
312 317 318 318 319 316 313 312 310 311 314 315 314 314 315 317 318 317 315 316 316 315 315 316 316 315 307 301 300 300 299 299 299 300 301 302 302 302 302 302 301 300 299 298 297 296 295 293 291 289 289 289 289 290 290 290 290 291 291 291 291 290 290 290 290 290 290 290 290 290 290 289 289 289 289 288 288 288 288 288 288 288 287 287 287 287
313 317 316 317 319 316 314 315 315 315 315 314 314 313 313 314 315 313 313 314 314 314 315 314 315 314 308 301 300 300 299 299 299 300 302 301 302 303 303 302 301 300 299 297 296 294 293 292 290 289 289 289 290 290 290 291 291 291 291 290 290 290 290 290 289 289 289 289 290 290 289 289 289 289 289 288 288 288 288 287 287 287 287 286 286 286
314 315 315 316 317 316 315 314 315 316 315 312 311 310 310 312 313 312 312 313 313 313 313 313 313 312 308 304 304 303 301 301 300 300 300 301 302 303 303 302 301 299 297 296 294 293 292 290 289 289 289 289 290 290 290 291 290 290 290 290 290 290 290 289 289 289 289 289 289 289 289 289 289 289 289 288 288 288 287 287 287 286 286 286 286 286
314 313 313 315 314 314 314 314 312 312 312 311 311 310 310 309 310 311 310 310 312 311 310 310 311 311 309 307 306 304 304 303 301 300 300 302 303 303 302 302 301 299 297 295 294 292 291 290 289 290 290 290 291 291 291 291 290 290 290 290 290 290 290 290 290 290 289 289 289 289 289 289 289 289 288 288 288 287 287 286 286 286 286 286 286 286
313 312 310 312 312 311 312 312 311 309 311 311 310 309 309 308 307 308 308 308 310 310 308 309 308 309 309 308 306 306 306 304 301 299 301 303 304 303 302 300 300 298 296 295 293 291 290 290 290 291 291 292 291 291 291 290 291 291 291 291 291 290 290 290 290 290 290 289 289 289 290 289 289 289 288 288 287 287 286 286 285 285 285 285 285 285
313 313 309 310 311 310 309 309 309 308 308 309 309 309 309 307 306 306 306 307 309 308 307 307 306 307 307 305 305 305 305 304 302 301 302 302 302 302 300 299 298 297 295 293 291 291 291 291 291 292 292 291 291 291 291 291 291 291 291 291 290 290 290 290 290 290 290 290 289 289 289 289 289 288 288 287 287 286 286 285 285 285 285 285 285 284
310 312 308 308 311 310 307 306 306 305 306 307 306 306 306 305 304 305 305 305 305 306 306 305 305 305 304 303 303 303 302 302 302 302 301 300 300 300 299 298 297 296 294 292 291 292 293 293 292 292 291 291 291 291 291 291 291 291 290 290 290 289 289 289 289 289 289 289 289 289 289 288 288 288 287 286 286 285 285 285 285 284 284 284 284 284
306 309 306 307 309 308 304 304 305 305 304 304 304 303 303 302 302 302 302 302 302 303 303 303 303 303 302 301 300 300 300 300 300 299 299 299 299 299 298 297 296 295 293 293 293 293 293 293 293 292 292 291 291 291 291 291 291 290 290 289 289 289 288 288 288 288 288 288 288 288 288 287 287 286 286 285 285 285 284 284 284 284 284 284 284 284
306 306 304 306 309 306 301 302 304 303 302 302 302 301 300 300 301 301 301 302 302 301 301 301 301 302 301 299 297 297 296 296 297 297 298 298 298 298 297 296 295 294 293 293 293 293 293 293 292 292 292 291 291 291 291 291 290 290 289 289 288 288 288 288 288 287 287 287 287 286 286 285 285 284 284 284 284 284 284 284 284 284 284 284 284 284
305 306 305 304 306 304 299 299 302 302 302 301 299 299 299 299 299 299 299 300 300 300 301 301 301 301 300 299 299 298 294 293 295 297 297 297 297 296 296 295 294 293 293 293 293 292 292 292 292 291 291 291 291 290 290 290 289 289 289 288 288 288 288 287 287 287 286 286 285 285 284 284 284 284 283 283 283 283 283 283 283 283 283 284 284 283
302 305 305 303 304 303 298 298 301 301 300 299 299 300 300 299 298 298 298 298 298 299 301 301 300 301 300 299 300 299 296 294 294 296 296 296 296 295 294 293 293 292 292 292 292 291 291 291 291 291 290 290 290 290 289 289 289 288 288 288 288 287 287 287 287 286 285 285 284 284 283 283 283 283 283 283 282 283 283 283 283 283 283 283 283 283
302 304 303 301 303 301 298 298 300 299 299 298 299 300 299 298 299 298 297 298 297 298 299 299 300 300 298 297 298 298 296 295 294 294 294 294 294 294 293 293 292 291 291 291 291 291 291 291 291 291 290 290 290 289 289 289 289 288 288 287 287 287 287 286 286 285 284 284 283 283 283 283 283 282 282 282 282 282 282 282 282 282 282 282 282 282
302 302 302 301 300 299 298 298 299 297 296 297 298 297 295 296 296 297 297 298 297 297 298 298 299 298 295 295 296 295 294 292 292 292 292 292 292 292 292 292 291 291 291 291 291 291 291 291 291 290 290 290 289 289 289 288 288 288 287 287 287 286 286 286 285 284 283 283 283 283 282 282 282 282 282 282 282 282 282 282 282 282 281 281 281 281
301 302 302 300 299 298 298 298 298 297 297 297 297 296 295 296 297 298 298 297 296 296 295 298 299 296 293 293 293 292 291 291 291 291 292 292 292 292 292 292 291 291 291 291 291 291 290 290 290 290 290 289 289 289 288 288 287 287 287 286 286 286 286 285 284 283 283 283 282 282 281 281 281 282 282 282 282 282 282 281 281 281 280 281 281 281
298 300 301 300 298 297 297 297 297 297 297 297 296 296 294 294 296 297 297 297 297 294 292 296 298 294 290 290 290 290 290 291 292 292 292 292 292 292 292 292 291 291 291 291 290 290 290 290 289 289 289 289 289 288 288 287 287 286 286 286 286 286 285 284 283 283 282 282 282 281 281 281 281 281 281 281 281 281 281 281 280 280 280 280 280 280
297 297 299 299 298 297 296 297 297 296 296 297 297 295 293 293 295 295 296 298 297 292 291 294 295 291 289 290 290 290 291 293 294 293 292 291 292 292 292 291 291 291 291 290 290 290 289 289 289 289 289 289 288 288 287 287 286 286 286 286 286 285 284 283 283 282 282 282 281 281 280 280 280 280 280 280 280 280 280 280 280 279 279 278 278 278
296 297 298 298 298 297 296 296 296 296 297 297 296 295 292 292 294 295 296 298 295 291 292 295 293 292 292 291 290 290 292 294 295 294 292 292 291 291 291 291 291 290 290 290 289 289 289 289 289 289 288 288 288 287 287 286 286 286 286 286 285 285 284 283 282 282 281 281 280 280 280 280 280 279 279 279 279 279 279 279 279 278 278 278 277 276
294 295 296 297 297 297 296 296 295 296 297 296 295 294 292 292 294 295 297 298 295 292 293 294 293 294 294 291 290 291 293 294 294 293 292 291 291 290 291 290 290 290 289 289 289 289 289 288 288 288 288 287 287 287 286 286 286 286 286 285 285 284 283 282 282 281 281 280 280 279 279 279 279 279 279 279 279 279 279 278 278 277 277 277 276 275
293 294 294 296 296 296 296 297 296 296 296 294 293 293 292 293 295 296 296 296 294 292 293 293 293 294 294 292 292 292 293 293 293 292 291 291 290 290 290 290 289 289 289 289 288 288 288 288 288 288 287 287 287 286 286 286 286 285 285 285 284 283 282 281 281 280 280 280 279 279 279 279 278 278 278 278 278 278 278 278 277 277 276 275 275 274
294 293 293 294 295 295 295 295 294 295 295 293 293 293 293 294 296 296 295 294 293 293 293 293 293 293 293 293 293 293 293 293 292 292 291 290 290 290 290 289 289 289 289 288 288 288 288 288 288 287 287 287 286 286 286 286 285 285 285 284 283 282 281 281 280 280 279 279 279 279 279 278 278 278 278 278 278 278 278 277 277 276 275 274 274 273
294 295 295 294 294 294 294 294 294 294 293 293 294 295 294 295 295 294 294 294 294 293 293 293 293 293 293 293 293 293 293 292 292 292 291 290 290 290 289 289 289 289 289 288 288 288 288 287 287 287 287 286 286 285 285 285 285 284 283 282 281 281 281 280 280 279 279 278 278 278 278 278 278 278 278 277 277 277 277 277 276 276 275 274 273 272
294 294 295 295 294 293 294 295 295 294 292 293 294 295 294 294 294 294 294 294 294 294 293 293 293 293 293 293 292 292 292 292 292 292 291 291 290 290 289 289 289 289 289 288 288 288 287 287 287 286 286 286 285 285 285 284 284 283 282 281 281 280 280 279 279 279 278 278 278 278 277 277 277 277 277 277 277 277 277 276 276 275 274 274 273 272
292 291 291 294 294 293 291 292 292 292 292 293 293 294 293 293 294 294 294 294 294 293 293 293 293 293 293 292 292 292 292 292 292 292 292 291 291 290 289 289 289 289 288 288 288 287 287 287 286 286 285 285 285 284 284 283 283 282 281 280 280 280 279 279 279 278 278 278 277 277 277 277 277 277 277 277 277 276 276 275 275 275 274 273 273 272
292 290 290 293 294 294 292 292 291 292 292 293 293 293 293 293 293 293 293 293 293 292 292 292 292 293 292 292 292 291 292 292 292 292 292 291 291 290 289 289 289 288 288 288 287 287 287 286 286 285 285 284 284 284 283 283 282 281 280 280 279 279 279 278 278 278 277 277 277 276 276 276 277 277 277 277 276 276 275 275 275 274 274 273 272 272
292 291 293 293 292 292 293 292 291 291 292 292 292 293 292 292 293 292 292 293 292 292 292 292 292 292 292 291 291 291 291 291 291 291 292 291 291 290 289 289 289 288 288 287 287 287 286 286 285 285 284 284 283 283 283 282 280 280 279 279 279 278 278 278 277 277 277 276 276 276 276 276 276 277 277 277 276 276 275 275 275 274 274 273 272 271
292 292 293 293 292 292 292 291 291 291 292 291 292 292 292 292 292 292 292 292 292 292 292 292 292 292 291 291 291 291 291 291 291 291 291 291 290 290 289 289 288 288 288 287 287 286 286 285 284 284 284 283 283 283 282 280 279 279 279 278 278 278 277 277 277 276 276 275 275 275 275 276 276 276 276 276 276 276 275 275 275 274 273 273 272 270
291 292 292 292 292 292 291 291 291 291 291 291 292 292 292 292 292 292 292 292 292 292 292 292 292 292 291 292 291 291 291 291 291 291 291 290 290 289 289 288 288 288 287 287 287 286 285 285 284 284 283 283 282 282 281 279 279 278 278 278 277 277 277 277 276 276 275 275 275 275 275 276 276 276 276 276 276 275 275 275 275 274 273 272 272 271
292 292 292 291 291 292 291 291 291 291 291 291 292 292 292 292 292 292 292 292 292 292 292 292 292 292 291 291 291 291 291 291 290 291 290 290 289 289 288 288 288 287 287 287 286 286 285 284 284 283 283 282 282 280 279 278 278 277 277 277 277 276 276 276 275 275 275 274 274 274 275 275 275 275 276 276 275 275 275 275 275 275 274 273 272 272
Wind_Speed
7 4 2 5 7 9 10 11 11 7 4 3 3 2 4 5 6 5 6 7 1 1 6 5 3 6 9 9 10 14 11 11 7 12 15 16 18 19 20 20 19 19 18 15 14 14 13 12 11 9 9 8 8 8 7 6 6 5 3 2 3 4 4 5 6 7 8 7 7 8 8 9 10 11 11 11 13 14 15 16 17 17 18 18 19 20
5 4 7 10 11 11 10 9 7 4 2 2 3 4 5 5 6 7 6 6 2 0 5 3 3 8 10 6 8 12 11 12 10 13 16 17 19 19 20 20 20 19 18 18 19 19 19 19 18 17 17 16 17 17 15 15 14 12 10 9 8 6 4 3 4 4 6 6 7 7 7 8 9 9 10 10 11 12 14 15 15 15 15 15 16 17
3 4 11 14 10 7 5 3 5 4 3 3 2 2 4 4 4 6 5 4 2 1 5 4 4 8 8 3 8 11 11 11 12 14 15 17 19 18 19 19 20 20 21 23 24 25 25 25 25 26 27 27 26 24 23 21 20 18 17 16 14 13 10 8 6 4 3 3 4 6 7 8 9 9 10 10 11 11 12 13 13 14 14 14 15 15
4 6 13 13 6 4 5 4 5 3 2 3 4 3 5 4 1 4 5 4 3 1 3 3 4 7 3 4 7 10 13 14 16 18 17 18 20 18 18 19 20 22 24 25 26 27 27 27 29 30 30 29 28 28 27 26 25 24 22 20 18 17 16 14 12 9 7 5 3 3 4 5 7 7 8 10 10 11 12 12 13 14 14 15 15 15
7 8 6 4 6 7 6 6 4 4 2 4 6 6 6 5 5 5 3 4 4 4 2 3 5 5 1 3 3 6 11 12 13 17 18 18 19 19 19 20 21 23 24 26 27 28 28 29 30 30 30 29 29 30 29 27 27 26 24 23 21 20 19 18 16 14 11 9 7 5 3 2 1 2 3 3 4 5 7 8 9 11 13 14 15 16
9 9 2 4 4 6 5 6 4 6 3 4 5 9 9 7 6 4 2 4 4 4 3 4 4 5 4 1 4 4 5 6 8 12 14 14 16 18 19 20 20 22 23 25 27 28 29 29 29 29 29 29 30 29 28 27 26 25 24 23 22 21 21 20 19 17 15 13 11 9 7 6 4 4 5 4 3 2 0 1 3 4 6 9 11 13
6 8 5 5 4 6 5 6 5 7 4 3 5 7 7 5 4 3 2 3 1 3 3 3 1 5 6 4 5 5 4 4 5 8 10 12 15 16 17 18 19 21 23 24 26 27 28 29 28 29 28 28 29 28 26 24 23 23 23 22 21 21 21 21 20 18 17 16 15 13 11 10 8 8 8 7 5 5 4 3 2 2 1 1 3 5
4 3 3 6 5 5 5 5 6 8 7 3 4 5 7 6 5 4 4 2 3 2 4 3 2 3 5 5 5 7 6 4 4 5 7 10 13 14 15 17 18 20 22 24 26 27 28 28 28 28 27 27 27 25 23 22 22 22 21 21 21 21 21 21 19 18 18 17 17 15 13 12 11 10 9 7 6 5 5 5 5 6 5 4 3 2
1 2 4 7 5 5 6 4 6 10 5 6 5 6 6 6 6 5 5 2 1 1 5 4 1 2 5 5 2 5 5 3 4 4 4 8 10 13 14 16 18 20 22 24 26 27 27 28 27 26 25 25 23 21 21 21 20 20 20 19 19 20 20 20 19 18 18 18 17 16 15 14 13 11 9 8 7 6 6 6 7 7 7 6 5 3
0 1 4 7 5 6 5 2 5 8 4 4 5 5 4 4 4 4 5 3 2 1 5 6 3 2 5 6 2 2 4 5 5 4 4 8 9 11 13 15 17 20 22 24 26 26 26 26 25 23 22 21 21 20 19 18 18 18 17 17 17 19 19 18 18 17 17 17 17 17 17 16 15 13 11 10 9 9 8 8 8 8 8 8 7 6
2 1 1 3 4 5 4 3 1 3 5 6 6 5 5 5 4 4 2 4 2 3 6 8 9 5 3 5 3 2 3 4 8 5 5 8 10 12 14 15 18 20 22 24 24 24 23 23 22 19 19 19 18 17 16 15 15 15 15 15 16 17 16 16 16 15 15 15 14 15 15 15 15 14 12 12 12 12 11 10 10 10 9 9 9 9
5 1 2 2 3 4 6 4 3 4 4 6 5 4 3 4 4 4 4 3 1 5 6 5 6 5 4 4 3 2 5 2 7 9 8 10 12 14 15 16 18 20 22 23 23 22 21 20 18 16 16 16 15 14 13 14 13 13 14 13 13 14 14 14 14 13 13 13 13 13 12 12 12 11 11 11 12 13 12 12 11 10 9 9 9 10
3 4 4 2 2 4 6 3 2 5 5 5 4 5 4 2 3 3 3 0 3 6 4 2 4 2 5 4 3 4 7 7 3 12 15 16 17 17 17 18 19 20 21 21 21 19 18 16 14 13 13 13 12 12 12 12 11 11 11 10 10 12 13 12 12 11 11 11 12 12 12 12 12 11 11 11 12 13 13 13 12 11 11 11 11 11
3 5 2 1 3 5 7 4 2 1 1 4 5 5 4 2 1 3 4 1 3 5 2 2 3 2 4 2 4 4 6 5 7 16 19 20 21 20 20 19 20 20 20 19 18 16 14 13 11 10 11 11 11 10 10 10 10 10 10 9 10 11 11 11 10 10 11 11 12 12 12 12 12 12 12 13 14 14 14 13 13 13 13 14 14 14
2 5 3 4 2 6 8 6 5 5 3 4 4 5 4 4 4 4 4 3 4 4 3 1 1 2 3 1 3 3 5 9 14 19 19 20 21 21 20 20 20 20 18 16 14 13 12 10 10 9 9 9 9 8 8 8 8 8 8 9 9 10 10 9 9 10 11 12 13 12 13 13 13 14 14 14 15 14 14 13 13 13 13 14 14 14
3 5 6 2 1 7 7 4 6 6 2 2 3 5 2 4 5 2 3 5 3 3 3 2 2 3 3 1 2 4 7 10 13 16 18 18 18 19 20 20 19 18 16 14 11 10 9 9 8 7 7 7 7 7 6 6 7 6 7 8 8 9 9 9 10 10 11 12 12 11 12 12 13 13 13 14 14 14 14 14 13 13 14 14 14 14
2 4 5 2 0 5 6 5 5 4 2 2 3 3 4 4 6 3 2 0 3 1 4 2 2 2 0 1 0 3 5 5 8 10 14 16 16 18 19 19 18 16 14 11 9 8 8 7 6 5 5 5 5 5 5 5 6 7 8 8 8 8 8 8 9 10 11 11 11 11 12 12 12 12 12 12 13 13 13 13 13 14 14 15 15 16
4 3 5 1 2 4 3 3 2 2 3 5 3 5 3 1 4 4 1 2 2 2 4 1 3 3 1 2 1 2 3 3 3 5 9 12 14 17 18 18 17 14 12 9 7 6 6 5 4 4 4 4 4 5 5 6 7 8 8 8 8 7 7 8 8 9 9 9 9 10 10 11 12 12 12 12 12 12 12 13 13 13 14 15 16 17
4 1 6 1 3 2 1 2 1 4 3 4 3 3 3 2 1 1 2 2 1 3 4 4 4 3 4 4 3 6 9 7 5 6 7 10 14 17 18 18 16 13 10 8 7 6 6 5 4 4 3 4 5 5 5 6 6 5 5 5 6 6 7 7 6 6 6 6 6 7 8 8 9 10 10 11 11 12 12 13 14 14 15 16 17 17
3 2 4 2 1 1 3 2 3 2 2 3 1 1 1 2 3 2 2 3 3 3 4 5 5 4 5 5 7 10 10 10 8 7 7 12 17 19 19 17 15 12 9 8 7 6 6 5 5 5 4 4 4 3 4 5 5 5 6 5 5 5 5 5 4 4 5 5 6 7 7 8 8 9 10 10 11 12 13 14 15 15 16 17 18 18
2 2 3 3 2 0 1 2 5 5 2 2 1 2 1 1 1 1 1 2 3 3 3 4 5 5 4 3 6 8 8 11 12 10 10 16 21 21 18 16 14 11 9 8 8 7 7 6 6 6 4 3 4 6 7 8 8 8 7 7 6 6 5 6 6 7 8 8 9 10 10 11 12 12 13 14 14 14 15 15 16 16 17 18 19 20
2 2 2 2 0 2 4 3 4 6 5 5 4 4 4 2 2 2 4 1 2 3 4 3 5 6 4 2 3 5 7 12 16 15 14 20 24 22 18 15 13 12 9 9 9 8 8 8 7 6 6 7 9 10 10 9 8 8 8 8 8 9 9 9 10 10 11 12 13 14 15 15 16 18 19 19 19 19 19 19 19 19 20 19 20 21
2 3 2 3 3 4 4 3 1 2 4 5 2 2 3 3 4 4 5 3 1 2 2 2 4 4 2 2 2 3 9 15 19 19 19 23 24 21 17 15 13 12 10 10 10 10 10 8 8 9 10 10 10 9 8 7 7 7 8 9 10 11 12 12 13 13 14 15 16 17 18 19 21 22 23 24 24 24 24 24 25 25 26 25 24 24
3 3 1 3 3 3 4 5 4 4 4 2 1 1 3 2 3 4 4 2 2 3 1 1 4 3 1 2 2 2 7 12 18 22 22 22 23 20 16 15 15 14 12 12 12 12 11 11 12 12 11 10 9 8 6 5 5 7 8 10 11 12 13 14 14 15 16 17 18 19 20 22 23 25 26 27 27 27 27 27 28 28 29 30 30 30
2 1 3 1 3 4 4 4 4 5 2 2 2 1 1 3 4 3 1 1 1 4 5 5 6 3 1 4 3 2 3 7 15 21 19 17 18 18 17 17 17 15 15 15 14 14 13 13 13 12 10 9 7 5 3 3 5 6 8 9 10 10 10 11 12 12 14 15 17 18 20 22 23 25 27 28 29 30 30 30 29 29 30 31 32 33
3 2 3 4 5 8 6 3 3 3 1 1 1 2 1 3 5 3 1 2 2 2 4 5 5 3 2 2 1 1 0 5 12 17 16 14 16 17 18 19 19 17 16 16 15 14 14 13 13 12 11 8 5 3 1 3 4 5 6 6 7 9 9 10 11 12 13 15 16 18 20 22 24 26 28 30 32 32 32 32 32 31 32 33 33 34
2 1 3 5 7 8 6 5 4 3 3 2 2 2 4 3 3 3 2 3 2 1 4 7 5 3 4 4 5 5 5 7 11 15 17 18 18 19 19 19 19 18 16 15 15 15 15 15 14 12 9 6 3 2 1 2 4 5 7 8 10 12 13 14 15 16 17 18 20 21 23 24 26 29 31 33 34 33 33 32 32 33 34 35 36 37
3 2 3 4 5 5 5 5 3 3 3 5 4 6 8 6 5 5 4 5 4 3 8 9 5 4 8 8 7 8 7 7 9 16 20 21 20 21 20 18 17 17 16 15 16 16 16 15 13 10 7 6 5 5 5 6 7 9 11 13 14 15 16 17 18 19 19 20 22 23 25 27 29 32 34 34 34 34 34 33 34 35 36 38 39 40
4 3 3 2 3 4 3 4 4 3 2 4 6 9 11 8 6 6 7 8 8 7 10 9 4 6 10 8 5 8 10 12 15 19 20 19 18 19 18 17 18 18 17 17 17 16 15 13 11 10 9 9 9 9 9 9 10 11 12 14 15 16 17 18 19 19 20 21 23 25 28 31 33 35 36 35 35 35 35 36 38 39 40 41 42 43
3 1 2 2 2 4 2 2 3 3 3 5 7 10 11 8 6 7 9 10 8 8 11 10 10 12 12 8 6 9 14 17 18 19 17 16 16 16 16 18 19 18 18 18 17 16 14 12 12 12 12 12 12 11 11 11 11 12 12 14 16 18 19 20 21 22 24 25 27 29 31 33 34 35 34 34 34 35 37 39 40 41 43 43 44 45
1 1 0 3 1 5 5 3 3 1 2 5 9 11 8 5 6 10 10 7 5 9 12 10 10 13 11 6 5 7 10 12 14 16 16 14 13 15 17 19 18 18 18 17 16 15 15 15 15 14 13 13 12 11 11 11 12 13 15 18 20 21 21 22 22 24 26 28 29 30 31 32 31 31 31 32 34 36 38 39 40 41 42 43 44 44
1 1 1 5 2 4 4 3 3 3 4 6 13 14 10 7 9 10 7 6 7 9 9 7 7 10 10 5 3 5 7 11 13 15 15 13 13 17 19 19 18 18 18 17 17 17 17 17 16 14 13 12 12 12 13 14 15 17 19 20 21 21 21 22 23 24 26 27 28 29 29 29 30 30 32 34 36 37 38 39 40 41 42 43 43 44
3 3 1 3 2 4 5 3 1 6 5 8 11 10 10 10 11 10 7 8 9 6 5 6 8 9 8 5 4 5 7 10 13 16 16 16 16 18 19 19 19 18 17 18 19 19 19 17 15 14 12 12 14 16 17 17 17 18 19 20 20 21 21 22 24 25 26 27 27 28 28 29 31 33 35 36 37 38 39 39 40 41 42 43 44 44
3 4 3 3 3 4 6 2 3 2 5 8 4 4 8 9 10 10 10 10 8 6 6 7 7 6 5 5 8 9 9 12 15 17 17 16 18 19 18 18 18 17 17 19 19 19 18 16 15 14 13 14 16 18 18 17 17 19 19 19 20 21 22 24 25 26 27 27 27 28 30 32 34 35 36 37 38 39 39 40 41 41 42 43 44 45
4 4 3 2 3 2 1 3 1 7 9 5 3 1 4 6 7 7 8 9 8 8 8 8 8 7 9 13 16 15 13 12 13 14 14 14 15 17 18 18 17 17 18 19 19 18 17 16 15 15 16 17 18 18 18 17 18 19 20 20 20 22 23 25 26 27 27 27 28 30 32 34 35 36 37 37 38 39 39 40 41 41 42 43 45 46
5 4 2 2 2 1 2 4 6 7 6 7 7 3 1 1 2 1 5 9 9 8 8 8 10 11 14 17 14 9 7 11 12 12 13 14 14 16 17 18 18 17 17 18 18 17 16 16 16 18 19 20 20 19 18 18 19 20 20 21 22 23 25 26 26 27 27 28 30 32 33 34 35 36 37 37 38 39 39 40 41 42 43 45 46 47
6 5 2 2 3 2 3 6 4 5 9 12 9 3 3 3 4 5 4 9 7 7 9 8 9 9 10 10 6 7 11 10 5 7 12 15 15 16 17 16 15 15 16 15 15 15 15 16 18 20 22 22 21 19 19 19 20 21 21 22 23 25 26 27 27 27 28 30 31 32 33 34 35 36 36 37 37 38 39 40 41 42 43 45 47 48
4 5 4 4 3 2 3 4 4 3 7 10 7 3 3 5 7 7 4 6 5 6 11 9 6 6 5 5 9 12 11 5 1 6 13 16 15 15 15 14 14 14 14 14 14 15 17 19 21 22 23 23 21 20 20 21 21 22 23 24 25 27 28 28 28 29 30 31 32 32 33 33 34 34 35 36 36 38 39 40 41 42 43 45 47 48
2 2 4 4 2 3 4 4 5 5 7 7 6 4 2 6 7 6 2 6 5 5 10 7 4 7 10 12 14 12 7 3 3 10 16 16 14 14 14 14 15 15 15 15 16 17 18 20 21 23 23 23 22 21 21 22 23 24 25 26 27 28 29 29 30 30 32 32 32 32 32 32 32 33 34 35 36 37 39 40 42 43 44 45 46 47
3 1 3 5 5 6 6 5 4 5 6 5 6 5 4 5 6 8 2 8 6 7 10 10 9 11 14 16 16 10 6 7 8 14 16 17 15 14 15 15 15 16 16 16 16 17 19 20 21 23 23 23 22 22 23 24 25 26 27 28 28 29 30 30 31 31 32 33 32 31 30 30 31 32 33 34 36 38 39 41 42 43 44 44 44 45
1 1 3 5 7 9 9 6 3 4 5 5 7 9 9 5 4 3 4 6 8 11 11 12 13 13 15 18 17 12 13 16 16 14 12 16 16 16 17 17 17 16 16 16 16 17 19 20 22 23 23 23 23 23 25 26 28 28 28 29 30 30 30 31 32 32 33 32 31 30 30 30 30 31 33 34 36 38 39 40 41 42 43 43 43 43
2 1 2 4 5 5 5 4 3 5 6 8 10 10 9 5 1 6 6 3 7 11 11 13 15 15 17 21 21 20 20 20 19 16 13 14 16 17 18 19 17 16 16 16 17 19 20 22 23 24 24 24 24 25 27 28 29 29 29 30 30 31 31 32 32 33 32 31 30 30 30 30 30 32 33 34 36 38 39 39 40 41 41 41 41 41
5 4 3 4 4 3 2 4 4 5 6 14 13 4 4 6 5 7 7 7 10 11 10 12 15 15 17 21 23 24 23 21 21 19 15 13 15 16 18 19 17 16 17 17 19 21 22 23 24 24 25 25 26 27 28 29 30 30 30 30 30 31 32 32 32 32 31 30 30 29 29 30 31 32 33 34 36 37 38 39 39 39 39 38 38 38
4 5 4 4 3 4 4 6 5 4 6 18 18 6 8 15 16 13 10 9 10 11 12 13 15 16 19 22 23 25 26 24 24 22 17 15 17 19 19 18 17 17 18 19 21 22 23 24 25 25 26 26 26 27 28 29 30 30 30 30 31 31 32 32 32 31 30 29 29 29 29 30 31 32 33 34 35 36 37 37 38 38 37 35 35 36
6 6 4 3 3 5 5 5 6 7 10 20 24 17 13 17 22 20 16 13 13 15 16 17 19 20 20 22 25 27 27 27 27 25 22 20 20 20 21 20 20 20 21 22 23 24 24 25 25 26 26 26 27 28 28 29 30 30 30 30 30 31 32 32 31 31 29 29 28 28 29 30 31 32 33 33 34 35 35 36 37 37 36 33 33 34
7 5 2 1 1 2 3 5 6 8 11 19 26 24 17 16 19 20 19 19 20 20 22 23 25 23 21 22 25 28 28 29 28 28 26 24 23 22 22 22 22 22 23 23 24 25 25 26 26 27 27 27 27 28 28 28 29 29 29 30 31 31 31 31 31 30 28 28 28 28 29 30 31 31 32 32 32 33 33 33 34 35 34 32 32 32
5 5 3 2 2 2 2 4 7 10 11 15 21 25 23 21 21 21 22 23 24 25 26 26 26 25 23 23 25 27 29 30 30 30 30 28 26 24 23 23 23 23 24 24 25 26 26 27 27 27 27 27 28 28 28 28 28 29 30 30 30 31 31 30 30 29 27 27 27 28 29 30 31 32 32 32 32 32 31 30 31 33 32 31 31 32
3 3 3 4 5 4 4 7 12 15 15 15 18 22 24 25 25 25 26 28 28 28 28 27 27 26 25 25 27 29 30 31 31 32 32 30 28 27 25 24 23 23 24 24 25 26 27 27 27 27 27 27 27 27 27 27 28 29 30 30 30 30 30 29 28 28 26 26 27 27 28 29 31 32 32 32 32 31 31 29 29 31 31 29 30 32
4 3 3 4 4 4 5 8 11 11 13 18 24 27 28 30 31 30 31 31 31 31 31 30 29 28 29 31 31 30 30 30 30 30 32 31 30 28 25 24 23 24 25 25 25 26 27 27 27 27 27 27 27 27 27 27 28 29 29 29 29 28 28 28 27 26 25 25 26 27 28 29 30 30 32 32 32 31 30 28 28 31 32 30 28 29
4 4 3 4 3 4 5 9 12 8 7 17 27 30 29 29 29 29 29 29 30 31 31 30 30 31 32 33 33 31 30 29 27 27 30 30 29 26 24 23 24 25 25 25 25 26 27 27 27 27 27 27 27 27 26 27 27 28 28 28 27 27 27 27 26 25 24 25 25 26 27 28 29 29 30 31 32 32 30 27 24 25 29 31 28 26
15 13 7 6 6 9 12 18 21 15 11 20 29 31 29 27 25 25 25 26 28 29 29 29 29 31 32 33 34 33 31 27 25 26 28 29 27 25 23 23 24 25 25 25 26 27 27 27 27 27 27 26 26 26 27 27 27 27 27 26 25 25 25 25 25 25 24 24 25 25 27 28 28 29 29 29 30 31 32 30 26 21 22 27 29 27
Wind_Direction
156 135 166 209 213 205 211 208 212 227 216 230 255 263 260 257 271 266 262 279 333 2 274 267 274 285 285 285 322 346 5 9 36 106 100 91 90 85 84 81 77 77 75 76 78 77 79 79 83 88 89 93 92 85 78 70 63 62 75 130 158 163 193 209 210 210 212 212 219 232 240 244 248 249 250 249 249 251 251 252 254 257 259 261 263 264
148 172 221 220 215 211 218 213 211 243 243 226 246 268 275 256 262 257 251 281 338 152 264 298 342 294 287 306 360 18 36 29 47 93 91 90 90 86 87 84 83 85 86 89 85 84 85 83 85 86 87 87 81 77 74 69 67 67 71 75 79 88 113 145 161 188 203 203 205 216 224 230 237 241 244 245 246 247 249 251 253 255 259 261 263 264
165 213 237 231 218 219 248 195 175 211 207 196 203 226 264 255 279 281 272 304 349 195 268 318 338 280 286 15 34 42 62 55 66 89 94 97 94 89 90 89 90 91 89 90 87 86 87 86 87 86 84 82 80 79 77 75 74 73 72 69 68 70 74 83 92 112 144 171 196 211 220 226 232 235 238 240 240 242 245 247 249 251 253 255 257 259
192 232 243 236 199 186 254 230 168 171 190 207 199 199 249 241 213 276 288 320 325 317 278 313 316 276 279 76 59 61 79 77 79 89 91 94 93 91 93 92 92 90 87 89 89 90 91 90 89 87 85 85 84 82 80 78 76 74 73 71 70 69 69 71 72 75 83 91 117 165 206 222 229 232 237 241 243 244 244 244 245 245 245 245 246 248
221 241 242 202 155 170 228 256 202 168 232 245 218 212 239 239 214 225 280 325 330 351 359 7 340 297 262 118 103 81 85 79 81 87 84 86 92 93 94 92 90 89 89 90 91 93 93 92 90 89 89 87 85 82 78 76 75 74 74 73 73 72 72 72 71 69 70 72 80 89 107 137 181 211 222 231 241 245 242 241 242 245 245 245 244 244
247 251 214 109 136 165 195 253 224 174 220 283 237 216 220 230 228 220 354 13 15 338 326 33 8 296 311 24 171 140 85 72 74 78 77 82 90 93 91 89 89 90 92 92 93 94 94 93 93 92 91 87 84 80 77 75 74 73 73 73 73 73 74 74 74 74 74 76 78 80 84 85 83 79 79 75 62 51 105 197 227 241 245 247 247 246
247 243 202 165 166 149 174 247 230 167 158 278 248 208 193 183 179 161 86 59 89 252 281 49 103 261 313 322 200 168 110 91 76 66 74 81 85 90 91 91 93 93 94 96 96 96 95 95 94 91 88 86 82 80 78 76 74 73 71 71 71 70 71 72 74 75 76 78 79 78 79 80 80 75 70 65 53 44 49 61 78 95 122 201 234 244
224 225 192 190 190 170 195 250 222 159 138 235 238 140 134 140 159 159 116 136 217 254 315 358 151 243 293 280 215 159 128 106 88 69 73 80 84 90 93 96 97 97 97 97 96 95 94 93 91 87 85 83 80 78 76 73 70 69 68 67 67 67 67 68 68 70 71 73 75 76 75 75 75 71 68 59 42 34 34 38 53 67 76 86 99 120
193 184 201 178 168 197 213 228 186 156 149 237 206 126 124 141 154 146 119 153 254 11 307 293 147 251 261 271 271 146 167 171 140 139 102 91 93 98 100 101 101 101 100 98 97 95 92 91 89 86 84 81 79 76 71 69 67 65 65 65 65 66 66 65 64 63 64 66 69 72 72 71 71 67 65 59 45 37 28 23 31 43 52 59 65 65
47 195 202 151 151 207 212 217 172 164 182 208 153 103 62 74 92 95 112 117 38 8 251 234 183 207 262 279 292 158 219 213 162 159 131 112 109 108 109 109 108 105 102 100 98 96 93 91 89 87 85 82 78 74 70 68 67 66 65 64 64 66 66 65 65 63 65 66 67 69 70 70 69 67 66 66 62 54 39 23 18 20 25 28 27 26
323 8 193 158 192 198 147 87 81 148 152 130 102 58 25 24 43 46 74 88 58 279 251 221 193 185 266 281 229 179 264 202 156 153 147 129 121 119 118 117 114 110 106 104 101 99 96 93 91 89 85 81 78 75 72 71 69 68 66 64 65 68 68 67 67 66 66 67 66 67 68 68 68 67 66 66 65 62 54 41 27 16 11 9 9 9
327 301 253 238 214 150 107 78 28 45 97 105 85 67 40 340 9 23 357 47 112 253 267 231 180 165 222 265 283 316 327 287 164 163 164 147 133 129 127 125 119 114 111 108 105 102 99 95 93 90 85 83 81 78 76 73 71 70 69 66 65 69 69 67 66 64 63 64 63 62 61 60 59 57 55 54 56 55 53 49 40 30 25 21 19 16
308 246 267 318 251 164 116 81 8 13 43 84 97 90 76 323 350 357 305 11 215 252 272 174 134 156 233 246 320 334 338 329 172 155 155 149 141 138 135 131 125 120 117 113 109 105 101 97 93 89 85 84 81 79 78 76 74 72 72 68 66 70 70 65 62 59 56 55 54 52 50 50 49 46 45 45 47 46 43 40 32 27 27 26 27 26
293 295 301 16 284 195 153 145 206 278 96 137 143 129 123 146 182 267 264 271 262 268 281 153 133 289 265 283 339 331 338 356 110 135 144 143 140 139 138 135 129 125 121 116 111 107 101 97 93 88 83 80 78 79 79 78 75 73 72 68 65 70 68 62 57 51 48 48 47 45 43 44 43 41 40 39 40 39 35 31 24 19 18 16 18 19
215 303 231 181 225 184 173 180 166 142 150 175 156 138 146 159 168 215 225 209 249 280 297 251 187 217 219 290 329 357 35 66 104 124 134 136 139 140 138 136 132 128 123 117 113 109 104 100 95 89 84 81 81 82 81 80 78 73 71 67 63 64 60 53 49 44 42 43 42 41 40 39 37 35 34 34 34 32 29 25 20 15 13 12 12 13
172 260 248 239 178 163 175 190 140 111 120 193 128 116 166 188 162 179 207 180 184 292 297 232 219 208 174 218 344 61 67 79 103 120 130 136 144 145 142 140 135 131 127 123 119 112 108 105 99 92 87 86 88 89 88 87 86 80 75 70 61 58 52 45 43 40 39 38 35 35 34 32 30 28 27 27 26 25 22 17 13 10 8 6 4 4
143 268 278 346 324 181 178 179 149 138 184 157 128 177 215 182 132 121 264 84 96 256 272 215 229 290 27 224 325 69 73 86 102 122 138 147 152 153 151 146 140 137 134 130 123 116 116 114 107 101 96 98 101 100 95 92 92 87 80 74 66 61 56 50 45 41 39 35 30 28 27 24 22 20 19 18 16 14 11 5 1 359 356 353 352 352
155 264 278 156 196 229 186 152 96 73 131 131 174 214 203 119 85 98 229 340 39 246 273 262 218 240 237 238 271 104 154 161 150 155 158 162 167 166 160 152 147 143 141 139 134 131 135 132 124 122 118 120 119 112 109 105 101 94 87 82 76 71 66 59 51 45 39 32 26 21 17 13 11 9 8 7 5 2 358 352 350 348 344 341 340 340
135 249 282 224 179 247 46 110 34 12 72 130 186 201 119 130 259 89 159 215 224 239 272 291 266 233 209 202 193 203 198 183 180 186 183 185 185 178 167 159 156 151 151 156 153 156 159 154 156 155 150 147 139 135 130 124 117 112 107 102 94 84 76 67 57 48 37 26 19 10 5 0 355 354 352 350 349 345 341 339 338 337 335 334 332 331
119 159 275 287 212 267 40 87 200 272 4 71 85 327 68 159 182 166 166 173 187 226 256 290 298 274 234 199 186 202 191 167 175 190 197 198 190 181 172 166 165 160 164 173 171 179 183 178 187 191 193 188 169 157 143 129 118 113 112 109 102 88 76 65 45 31 15 4 359 351 348 345 340 340 337 333 332 330 328 328 328 327 326 326 326 324
108 166 246 299 329 114 159 202 191 186 171 117 165 231 252 213 166 230 230 135 144 188 222 267 278 267 252 193 184 198 175 164 180 182 190 197 189 182 176 172 175 174 176 186 189 196 200 204 217 217 211 184 138 117 114 108 98 92 83 72 64 49 38 25 10 4 357 353 352 348 344 340 338 336 334 332 330 328 327 326 325 324 322 322 323 322
169 175 202 237 286 184 222 243 184 175 162 152 178 199 191 170 145 248 264 238 140 184 190 216 261 273 263 217 200 193 168 176 186 178 182 193 189 185 184 180 185 189 189 196 202 208 213 217 220 200 163 140 126 115 107 95 80 67 51 38 28 17 10 4 358 354 350 347 345 342 340 338 336 334 333 332 331 330 329 328 326 325 322 321 320 320
123 113 163 227 215 210 248 313 27 163 136 133 160 164 154 143 132 179 235 245 229 224 153 166 252 277 273 254 267 200 177 181 185 177 178 190 192 189 189 189 193 198 202 208 212 213 211 205 189 168 151 140 128 114 99 82 61 44 29 19 12 5 360 356 351 346 341 338 336 335 335 334 333 332 332 332 331 330 330 329 329 329 327 326 324 322
102 95 173 262 309 318 312 337 358 27 81 126 278 113 144 161 148 174 207 186 183 235 224 261 254 247 347 332 338 185 181 180 183 181 181 192 198 194 196 203 203 202 206 210 208 204 200 191 176 163 151 141 128 113 93 67 37 21 12 6 3 360 356 350 344 338 333 330 328 327 327 328 329 329 329 328 326 325 326 326 326 327 327 327 326 324
176 142 139 192 313 319 322 344 348 351 35 170 263 278 156 129 117 115 149 135 178 219 217 240 251 242 334 352 22 77 166 189 194 192 193 202 204 201 207 213 210 207 210 209 205 201 196 185 172 161 151 143 136 123 87 42 17 10 7 1 355 349 346 341 330 324 321 317 315 315 316 319 321 322 323 322 321 321 322 323 323 323 323 323 321 321
174 184 143 167 226 245 245 229 234 270 254 178 263 268 194 137 137 133 140 199 218 217 215 233 247 273 332 337 328 343 221 217 216 212 216 225 220 216 220 220 214 212 212 209 203 198 191 179 170 163 159 156 152 143 65 11 358 351 341 331 323 317 316 312 305 303 304 304 304 305 307 310 312 315 316 317 317 317 318 320 320 320 319 318 317 316
119 207 185 186 222 233 214 211 213 160 148 202 260 240 217 204 175 153 157 208 218 279 264 242 220 242 275 237 211 226 223 219 230 232 232 234 233 235 236 230 219 213 212 208 200 191 183 177 173 169 168 171 176 194 249 291 289 290 294 295 297 300 302 300 298 296 296 297 299 301 303 306 308 310 312 312 313 313 314 315 315 315 314 314 314 314
108 245 228 186 232 231 169 185 207 129 156 213 243 253 246 230 174 164 200 212 181 211 258 251 192 188 249 239 201 209 225 225 233 239 240 241 244 246 243 232 217 210 210 205 194 186 181 180 180 178 182 193 207 222 238 257 270 280 290 294 296 296 298 297 295 292 290 291 293 295 298 301 302 305 306 308 309 310 310 311 310 311 311 311 312 312
121 234 236 154 238 243 162 172 185 151 190 222 228 244 252 244 190 174 211 215 195 214 255 264 232 221 251 254 208 202 218 227 238 248 251 251 252 249 239 222 211 207 204 197 190 186 185 186 190 194 201 212 220 230 240 251 264 274 280 286 291 295 297 297 294 291 289 289 291 292 294 297 299 301 303 305 307 308 309 309 310 311 311 311 310 310
115 221 229 143 253 277 289 254 216 179 210 242 241 238 244 248 217 202 225 226 212 228 252 262 262 260 261 254 227 227 229 231 242 253 255 252 250 243 227 212 205 201 196 193 192 192 195 200 206 209 213 219 224 230 237 244 254 265 274 284 292 297 297 295 292 290 289 289 290 291 292 294 296 298 300 302 304 305 307 308 308 309 309 309 308 308
92 202 168 91 358 300 311 291 256 198 205 254 263 256 252 260 249 237 237 232 221 238 249 255 263 269 268 242 218 238 232 221 230 241 243 245 239 224 211 202 197 194 193 194 196 200 207 211 211 212 213 217 223 229 238 250 261 272 282 290 294 296 296 294 291 289 288 288 289 289 290 292 293 295 297 299 301 302 304 304 305 305 306 306 306 306
100 190 33 71 83 284 309 287 267 8 14 291 273 264 252 246 251 249 235 207 210 228 242 249 254 261 264 249 225 232 213 206 217 223 226 229 218 207 201 195 191 190 191 197 201 204 208 207 205 208 212 221 233 242 250 260 270 278 285 291 295 296 296 295 293 292 291 291 291 292 293 295 297 298 300 301 302 303 304 304 305 305 305 305 305 305
132 141 121 100 144 273 301 282 299 35 10 285 268 252 234 233 242 251 253 234 216 197 201 224 234 244 255 270 274 244 204 206 220 218 214 213 203 197 197 193 190 192 195 201 205 204 204 204 205 211 223 239 249 252 257 264 273 282 289 294 296 296 296 296 295 294 294 294 295 296 298 301 302 304 305 305 306 306 306 307 307 307 307 308 307 307
144 138 161 150 146 259 285 334 44 15 262 260 259 175 198 219 226 234 250 247 223 188 199 230 245 254 257 250 249 246 233 230 231 224 217 211 200 194 195 194 193 199 204 206 207 205 206 209 212 222 239 254 256 256 260 268 279 289 294 295 294 295 297 297 297 297 297 297 299 300 303 305 306 307 307 308 308 309 309 310 310 310 310 309 309 308
157 152 167 144 125 206 268 63 113 242 245 269 327 182 197 210 209 224 254 259 237 215 220 238 249 247 241 240 245 256 253 231 212 203 197 199 198 195 196 199 202 207 209 207 207 209 212 217 224 239 254 258 256 255 262 272 283 291 294 294 294 296 298 299 299 299 299 300 302 305 307 308 309 309 309 310 310 310 311 311 311 311 311 310 309 308
160 157 149 144 143 154 134 155 210 250 287 302 288 268 169 177 170 194 282 269 242 216 208 227 241 239 241 248 253 252 214 176 172 182 183 188 200 205 208 213 214 213 213 212 214 217 222 231 244 256 259 255 251 254 263 274 285 291 293 294 296 298 299 300 300 300 300 302 305 308 310 310 310 310 310 310 310 311 311 311 311 311 311 310 310 309
152 150 142 184 203 165 178 215 242 318 311 287 270 225 168 195 170 151 241 263 247 202 187 206 237 241 240 246 227 165 154 147 155 204 203 205 217 222 223 222 216 211 210 212 219 227 237 249 256 258 255 250 249 254 265 278 288 294 295 297 298 300 301 301 301 301 303 307 310 311 311 311 310 311 310 310 311 311 311 311 311 312 312 311 311 311
159 175 169 185 216 134 148 238 269 287 267 263 264 253 210 206 189 165 204 268 274 204 187 193 219 215 192 188 169 152 146 136 266 234 216 214 218 219 217 213 205 205 211 219 231 241 248 253 255 253 250 248 250 259 272 284 293 297 298 300 301 302 303 303 303 304 307 310 312 312 312 311 311 311 310 310 311 311 311 311 312 313 313 313 313 313
150 195 160 164 207 161 164 220 227 232 248 249 253 261 200 184 174 122 90 281 273 194 176 173 188 189 180 180 173 157 144 158 238 243 223 207 202 203 204 205 207 215 225 235 245 250 252 252 251 249 248 250 256 268 280 289 296 298 299 301 302 303 304 304 304 307 310 312 313 312 312 312 310 309 309 310 311 312 312 313 314 315 315 315 314 314
138 171 173 187 214 210 211 228 230 241 252 243 235 225 171 152 127 93 42 271 238 168 170 181 194 204 203 194 178 163 172 197 242 264 238 208 203 209 211 217 227 234 240 244 247 250 252 252 251 251 252 257 265 275 285 292 297 299 300 302 303 304 304 305 306 309 311 312 312 312 312 310 309 309 311 312 313 313 314 316 317 317 317 316 315 314
143 211 205 212 225 222 218 227 255 261 242 223 213 194 162 110 86 140 227 239 187 175 190 200 206 215 213 199 186 192 220 232 252 265 232 204 212 221 224 231 237 241 245 246 248 252 255 255 255 256 259 265 273 281 288 294 297 298 300 302 303 303 304 305 308 310 311 312 312 312 311 310 310 312 313 314 315 315 316 318 318 317 317 317 316 315
152 166 233 224 225 226 224 227 256 275 240 196 190 188 168 130 164 219 232 236 197 206 220 216 215 221 219 210 208 219 236 249 254 245 220 212 222 225 228 233 234 237 241 244 248 254 257 258 260 261 265 271 277 284 290 294 295 297 299 302 302 302 303 306 308 310 311 312 312 312 310 310 312 314 315 316 316 316 317 319 318 317 318 318 317 315
165 158 217 228 196 160 208 220 225 269 221 172 163 173 179 181 220 239 240 242 230 232 240 229 225 229 225 222 226 232 240 251 251 239 229 229 230 228 232 236 237 241 247 251 254 256 258 259 261 263 267 273 278 285 290 292 293 296 300 301 301 301 304 306 309 310 312 312 312 311 311 311 313 315 316 317 318 317 318 319 319 318 319 318 317 315
181 165 192 229 190 148 186 212 211 254 200 167 167 190 206 207 230 245 237 232 233 237 243 241 243 245 238 234 237 238 240 246 247 240 234 232 231 231 234 238 243 250 256 258 258 258 258 259 261 264 269 274 280 285 289 291 293 297 299 299 299 302 305 308 309 310 312 312 311 310 311 312 315 316 317 318 318 318 318 320 320 319 319 319 318 316
216 193 174 205 200 167 189 216 215 230 210 186 190 208 217 222 238 243 237 239 247 249 251 253 256 257 250 243 240 238 239 245 247 243 242 242 238 234 236 241 247 253 257 257 257 258 258 259 262 266 271 276 282 285 288 290 294 296 297 298 300 304 306 309 309 310 312 311 311 311 312 314 316 317 318 319 319 319 320 322 321 319 319 320 320 317
233 213 144 111 251 217 222 228 215 220 215 200 203 215 228 240 247 247 244 248 255 262 265 264 263 263 259 252 245 242 246 252 251 247 248 251 248 240 237 241 246 250 253 254 255 257 258 260 264 267 273 279 282 285 288 291 294 295 296 299 303 305 307 308 309 310 311 310 310 312 313 314 316 317 318 319 320 321 323 324 321 319 320 323 323 322
264 226 192 192 234 242 241 223 206 206 205 201 207 218 228 239 247 250 251 255 261 269 271 269 267 265 262 260 258 257 260 262 258 254 255 256 250 241 238 242 246 250 253 254 255 256 258 261 265 269 275 280 282 285 289 292 294 295 298 301 304 306 307 308 309 309 310 310 311 313 314 316 317 317 319 320 322 322 324 325 322 320 322 326 327 327
252 214 196 209 219 224 239 232 217 213 219 227 232 234 239 248 255 256 258 261 267 271 272 269 265 262 262 267 268 267 267 266 262 260 262 259 248 239 240 245 249 252 253 254 255 258 260 263 267 272 277 280 283 287 291 293 294 297 299 303 304 305 306 307 307 308 309 310 311 313 315 316 317 318 319 321 323 323 325 327 325 322 324 330 334 333
208 207 195 184 204 239 260 250 236 235 247 252 252 252 254 258 262 263 265 267 270 271 271 268 265 267 272 276 276 271 267 264 262 263 265 260 247 238 240 247 251 254 256 257 259 262 263 266 270 275 278 281 285 289 291 293 296 298 300 302 303 304 305 305 305 306 308 309 312 314 315 316 317 319 321 322 323 323 324 328 330 327 327 333 340 340
203 229 202 144 179 237 230 227 229 233 252 255 256 260 261 262 264 265 267 270 271 272 271 269 270 275 277 278 277 272 266 263 263 265 265 257 244 239 244 249 252 255 256 259 263 265 266 269 273 276 280 284 288 290 292 295 297 299 300 302 302 303 304 304 304 305 308 310 312 314 315 315 318 321 322 323 323 323 323 328 333 331 329 332 340 345
222 228 203 164 208 237 236 236 233 224 229 251 260 266 269 269 268 266 267 272 273 273 273 273 274 278 278 277 275 271 265 264 267 267 262 251 242 243 250 252 254 256 258 261 265 266 268 272 275 279 283 287 289 291 293 297 298 298 298 299 300 301 302 302 303 305 308 311 313 314 315 316 319 322 322 323 324 324 324 327 330 332 331 334 339 344